Time,TemperatureF,DewpointF,PressureIn,WindDirection,WindDirectionDegrees,WindSpeedMPH,WindSpeedGustMPH,Humidity,HourlyPrecipIn,Conditions,Clouds,dailyrainin,SoftwareType,DateUTC
2013-04-06 00:02:00,53.2,52.7,30.15,South,180,0.0,0.0,98,0.00,,---,0.00,VWS V14.01,2013-04-06 07:02:00,
2013-04-06 00:07:00,53.2,52.7,30.15,South,180,0.0,0.0,98,0.00,,---,0.00,VWS V14.01,2013-04-06 07:07:00,
2013-04-06 00:13:00,53.2,52.7,30.15,ESE,112,0.0,0.0,98,0.00,,---,0.00,VWS V14.01,2013-04-06 07:13:00,
2013-04-06 00:18:00,53.2,52.7,30.15,ESE,112,0.0,0.0,98,0.00,,---,0.00,VWS V14.01,2013-04-06 07:18:00,
2013-04-06 00:23:00,53.2,52.7,30.15,SE,135,0.0,0.0,98,0.00,,---,0.00,VWS V14.01,2013-04-06 07:23:00,
2013-04-06 00:29:00,53.2,52.7,30.15,West,270,0.0,0.0,98,0.00,,---,0.00,VWS V14.01,2013-04-06 07:29:00,
2013-04-06 00:35:00,53.2,52.7,30.15,West,270,0.0,0.0,98,0.00,,---,0.00,VWS V14.01,2013-04-06 07:35:00,
2013-04-06 00:40:00,53.2,52.7,30.15,SE,135,0.0,0.0,98,0.00,,---,0.00,VWS V14.01,2013-04-06 07:40:00,
2013-04-06 00:45:00,53.2,52.7,30.15,SW,225,0.0,0.0,98,0.00,,---,0.00,VWS V14.01,2013-04-06 07:45:00,
2013-04-06 00:50:00,53.2,52.7,30.15,SW,225,0.0,0.0,98,0.00,,---,0.00,VWS V14.01,2013-04-06 07:50:00,
2013-04-06 00:55:00,53.2,52.7,30.15,West,270,0.0,0.0,98,0.00,,---,0.00,VWS V14.01,2013-04-06 07:55:00,
2013-04-06 01:00:00,53.2,52.7,30.15,WNW,292,0.0,0.0,98,0.00,,---,0.00,VWS V14.01,2013-04-06 08:00:00,
2013-04-06 01:05:00,53.2,52.7,30.15,West,270,0.0,0.0,98,0.00,,---,0.00,VWS V14.01,2013-04-06 08:05:00,
2013-04-06 01:10:00,53.2,52.7,30.15,SW,225,0.0,0.0,98,0.00,,---,0.00,VWS V14.01,2013-04-06 08:10:00,
2013-04-06 01:16:00,53.4,52.9,30.15,SW,225,0.0,2.0,98,0.00,,---,0.00,VWS V14.01,2013-04-06 08:16:00,
2013-04-06 01:21:00,53.4,52.9,30.15,West,270,0.0,1.3,98,0.00,,---,0.00,VWS V14.01,2013-04-06 08:21:00,
2013-04-06 01:26:00,53.4,52.9,30.15,SW,225,1.1,2.0,98,0.00,,---,0.00,VWS V14.01,2013-04-06 08:26:00,
2013-04-06 01:31:00,53.4,52.9,30.15,West,270,0.0,1.3,98,0.00,,---,0.00,VWS V14.01,2013-04-06 08:31:00,
2013-04-06 01:37:00,53.4,52.9,30.15,NW,315,0.0,0.0,98,0.00,,---,0.00,VWS V14.01,2013-04-06 08:37:00,
2013-04-06 01:42:00,53.4,52.9,30.15,West,270,0.0,1.3,98,0.00,,---,0.00,VWS V14.01,2013-04-06 08:42:00,
2013-04-06 01:47:00,53.4,52.9,30.15,West,270,0.0,0.0,98,0.00,,---,0.00,VWS V14.01,2013-04-06 08:47:00,
2013-04-06 01:52:00,53.4,52.9,30.15,ESE,112,0.0,0.0,98,0.00,,---,0.00,VWS V14.01,2013-04-06 08:52:00,
2013-04-06 01:57:00,53.4,52.9,30.15,SE,135,0.0,0.0,98,0.00,,---,0.00,VWS V14.01,2013-04-06 08:57:00,
2013-04-06 02:02:00,53.4,52.9,30.15,South,180,0.0,0.0,98,0.00,,---,0.00,VWS V14.01,2013-04-06 09:02:00,
2013-04-06 02:07:00,53.4,52.9,30.15,SE,135,0.0,0.0,98,0.00,,---,0.00,VWS V14.01,2013-04-06 09:07:00,
2013-04-06 02:13:00,53.4,52.9,30.15,SE,135,0.0,0.0,98,0.00,,---,0.00,VWS V14.01,2013-04-06 09:13:00,
2013-04-06 02:18:00,53.4,52.9,30.15,SE,135,0.0,0.0,98,0.00,,---,0.00,VWS V14.01,2013-04-06 09:18:00,
2013-04-06 02:23:00,53.2,52.7,30.15,SE,135,0.0,0.0,98,0.00,,---,0.00,VWS V14.01,2013-04-06 09:23:00,
2013-04-06 02:28:00,53.2,52.7,30.15,West,270,1.1,1.1,98,0.00,,---,0.00,VWS V14.01,2013-04-06 09:28:00,
2013-04-06 02:33:00,53.2,52.7,30.15,ESE,112,0.0,0.0,98,0.00,,---,0.00,VWS V14.01,2013-04-06 09:33:00,
2013-04-06 02:38:00,53.2,52.7,30.15,SE,135,0.0,0.0,98,0.00,,---,0.00,VWS V14.01,2013-04-06 09:38:00,
2013-04-06 02:44:00,53.1,52.5,30.15,South,180,0.0,0.0,98,0.00,,---,0.00,VWS V14.01,2013-04-06 09:44:00,
2013-04-06 02:49:00,53.1,52.5,30.15,South,180,0.0,0.0,98,0.00,,---,0.00,VWS V14.01,2013-04-06 09:49:00,
2013-04-06 02:55:00,53.1,52.5,30.15,South,180,0.0,2.0,98,0.00,,---,0.00,VWS V14.01,2013-04-06 09:55:00,
2013-04-06 03:00:00,53.1,52.5,30.15,WNW,292,0.0,2.7,98,0.00,,---,0.00,VWS V14.01,2013-04-06 10:00:00,
2013-04-06 03:07:00,53.2,52.7,30.15,SSW,202,1.6,2.7,98,0.00,,---,0.00,VWS V14.01,2013-04-06 10:07:00,
2013-04-06 03:12:00,53.2,52.7,30.12,South,180,0.0,1.6,98,0.00,,---,0.00,VWS V14.01,2013-04-06 10:12:00,
2013-04-06 03:17:00,53.1,52.5,30.12,West,270,1.1,1.1,98,0.00,,---,0.00,VWS V14.01,2013-04-06 10:17:00,
2013-04-06 03:22:00,53.1,52.5,30.12,West,270,0.0,2.2,98,0.00,,---,0.00,VWS V14.01,2013-04-06 10:22:00,
2013-04-06 03:27:00,53.1,52.5,30.12,South,180,0.0,1.6,98,0.00,,---,0.00,VWS V14.01,2013-04-06 10:27:00,
2013-04-06 03:33:00,53.1,52.5,30.12,South,180,0.9,0.9,98,0.00,,---,0.00,VWS V14.01,2013-04-06 10:33:00,
2013-04-06 03:38:00,53.1,52.5,30.12,WNW,292,0.0,1.3,98,0.00,,---,0.00,VWS V14.01,2013-04-06 10:38:00,
2013-04-06 03:43:00,53.1,52.5,30.12,SW,225,2.5,2.5,98,0.00,,---,0.00,VWS V14.01,2013-04-06 10:43:00,
2013-04-06 03:49:00,53.2,52.7,30.12,West,270,0.0,2.0,98,0.00,,---,0.00,VWS V14.01,2013-04-06 10:49:00,
2013-04-06 03:55:00,53.1,52.5,30.12,South,180,0.9,2.2,98,0.00,,---,0.00,VWS V14.01,2013-04-06 10:55:00,
2013-04-06 04:00:00,53.1,52.5,30.12,SSE,158,0.0,2.2,98,0.00,,---,0.00,VWS V14.01,2013-04-06 11:00:00,
2013-04-06 04:05:00,53.1,52.5,30.12,South,180,1.1,3.4,98,0.00,,---,0.00,VWS V14.01,2013-04-06 11:05:00,
2013-04-06 04:11:00,53.1,52.5,30.12,West,270,0.0,0.0,98,0.00,,---,0.00,VWS V14.01,2013-04-06 11:11:00,
2013-04-06 04:17:00,53.1,52.5,30.12,South,180,0.0,1.3,98,0.00,,---,0.00,VWS V14.01,2013-04-06 11:17:00,
2013-04-06 04:22:00,53.1,52.5,30.12,SW,225,0.9,0.9,98,0.00,,---,0.00,VWS V14.01,2013-04-06 11:22:00,
2013-04-06 04:27:00,53.1,52.5,30.12,WNW,292,0.0,3.1,98,0.00,,---,0.00,VWS V14.01,2013-04-06 11:27:00,
2013-04-06 04:32:00,53.1,52.5,30.12,South,180,0.0,0.0,98,0.00,,---,0.00,VWS V14.01,2013-04-06 11:32:00,
2013-04-06 04:37:00,53.1,52.5,30.12,ENE,68,0.0,0.0,98,0.00,,---,0.00,VWS V14.01,2013-04-06 11:37:00,
2013-04-06 04:42:00,53.1,52.5,30.12,NW,315,0.0,0.0,98,0.00,,---,0.00,VWS V14.01,2013-04-06 11:42:00,
2013-04-06 04:47:00,53.1,52.5,30.12,North,0,0.0,0.0,98,0.00,,---,0.00,VWS V14.01,2013-04-06 11:47:00,
2013-04-06 04:52:00,53.1,52.5,30.12,WNW,292,0.0,0.0,98,0.00,,---,0.00,VWS V14.01,2013-04-06 11:52:00,
2013-04-06 04:57:00,53.1,52.5,30.12,NNE,22,0.0,0.0,98,0.00,,---,0.00,VWS V14.01,2013-04-06 11:57:00,
2013-04-06 05:03:00,53.1,52.5,30.12,ESE,112,0.0,0.0,98,0.00,,---,0.00,VWS V14.01,2013-04-06 12:03:00,
2013-04-06 05:08:00,53.1,52.5,30.12,ENE,68,0.0,0.0,98,0.00,,---,0.00,VWS V14.01,2013-04-06 12:08:00,
2013-04-06 05:13:00,53.1,52.5,30.12,East,90,0.0,0.0,98,0.00,,---,0.00,VWS V14.01,2013-04-06 12:13:00,
2013-04-06 05:19:00,53.1,52.5,30.12,SW,225,0.0,0.0,98,0.00,,---,0.00,VWS V14.01,2013-04-06 12:19:00,
2013-04-06 05:24:00,53.1,52.5,30.12,SW,225,0.0,0.0,98,0.00,,---,0.00,VWS V14.01,2013-04-06 12:24:00,
2013-04-06 05:29:00,53.1,52.5,30.12,SE,135,0.0,0.0,98,0.00,,---,0.00,VWS V14.01,2013-04-06 12:29:00,
2013-04-06 05:34:00,53.1,52.5,30.12,ESE,112,0.0,0.0,98,0.00,,---,0.00,VWS V14.01,2013-04-06 12:34:00,
2013-04-06 05:39:00,53.1,52.5,30.12,South,180,0.0,0.0,98,0.00,,---,0.00,VWS V14.01,2013-04-06 12:39:00,
2013-04-06 05:45:00,52.9,52.3,30.12,NW,315,0.0,0.0,98,0.00,,---,0.00,VWS V14.01,2013-04-06 12:45:00,
2013-04-06 05:50:00,52.9,52.3,30.12,West,270,0.0,1.1,98,0.00,,---,0.00,VWS V14.01,2013-04-06 12:50:00,
2013-04-06 05:55:00,52.9,52.3,30.12,SW,225,0.0,0.0,98,0.00,,---,0.00,VWS V14.01,2013-04-06 12:55:00,
2013-04-06 06:00:00,52.9,52.3,30.12,SW,225,0.0,0.0,98,0.00,,---,0.00,VWS V14.01,2013-04-06 13:00:00,
2013-04-06 06:06:00,52.9,52.3,30.12,East,90,0.0,0.0,98,0.00,,---,0.00,VWS V14.01,2013-04-06 13:06:00,
2013-04-06 06:12:00,53.1,52.5,30.12,South,180,0.0,0.0,98,0.00,,---,0.00,VWS V14.01,2013-04-06 13:12:00,
2013-04-06 06:17:00,53.1,52.5,30.12,South,180,0.0,0.0,98,0.00,,---,0.00,VWS V14.01,2013-04-06 13:17:00,
2013-04-06 06:22:00,53.1,52.5,30.12,South,180,0.0,0.0,98,0.00,,---,0.00,VWS V14.01,2013-04-06 13:22:00,
2013-04-06 06:28:00,53.1,52.5,30.12,South,180,0.0,0.0,98,0.00,,---,0.00,VWS V14.01,2013-04-06 13:28:00,
2013-04-06 06:33:00,53.1,52.5,30.12,South,180,0.0,0.0,98,0.00,,---,0.00,VWS V14.01,2013-04-06 13:33:00,
2013-04-06 06:40:00,53.1,52.5,30.12,NW,315,0.0,0.0,98,0.00,,---,0.00,VWS V14.01,2013-04-06 13:40:00,
2013-04-06 06:45:00,53.1,52.5,30.12,NW,315,0.0,0.0,98,0.00,,---,0.00,VWS V14.01,2013-04-06 13:45:00,
2013-04-06 06:50:00,53.1,52.5,30.12,NW,315,0.0,0.0,98,0.00,,---,0.00,VWS V14.01,2013-04-06 13:50:00,
2013-04-06 06:55:00,53.1,52.5,30.15,NW,315,0.0,0.0,98,0.00,,---,0.00,VWS V14.01,2013-04-06 13:55:00,
2013-04-06 07:01:00,53.1,52.5,30.15,NNW,338,0.0,1.1,98,0.00,,---,0.00,VWS V14.01,2013-04-06 14:01:00,
2013-04-06 07:07:00,53.1,52.5,30.15,West,270,0.0,0.0,98,0.00,,---,0.00,VWS V14.01,2013-04-06 14:07:00,
2013-04-06 07:12:00,53.2,52.7,30.12,West,270,0.0,0.0,98,0.00,,---,0.00,VWS V14.01,2013-04-06 14:12:00,
2013-04-06 07:17:00,53.2,52.7,30.12,West,270,0.0,0.0,98,0.00,,---,0.00,VWS V14.01,2013-04-06 14:17:00,
2013-04-06 07:22:00,53.2,52.7,30.12,West,270,0.0,0.0,98,0.00,,---,0.00,VWS V14.01,2013-04-06 14:22:00,
2013-04-06 07:27:00,53.2,52.7,30.15,West,270,0.0,0.0,98,0.00,,---,0.00,VWS V14.01,2013-04-06 14:27:00,
2013-04-06 07:32:00,53.4,52.9,30.15,SW,225,0.0,0.0,98,0.00,,---,0.00,VWS V14.01,2013-04-06 14:32:00,
2013-04-06 07:37:00,53.6,53.0,30.15,WNW,292,0.0,0.0,98,0.00,,---,0.00,VWS V14.01,2013-04-06 14:37:00,
2013-04-06 07:42:00,53.6,53.0,30.15,WNW,292,0.0,0.0,98,0.00,,---,0.00,VWS V14.01,2013-04-06 14:42:00,
2013-04-06 07:47:00,53.8,53.2,30.15,WNW,292,0.0,0.0,98,0.00,,---,0.00,VWS V14.01,2013-04-06 14:47:00,
2013-04-06 07:52:00,54.0,53.4,30.15,WNW,292,0.0,0.0,98,0.00,,---,0.00,VWS V14.01,2013-04-06 14:52:00,
2013-04-06 07:57:00,54.1,53.6,30.15,SE,135,0.9,0.9,98,0.00,,---,0.00,VWS V14.01,2013-04-06 14:57:00,
2013-04-06 08:02:00,54.1,53.6,30.15,West,270,0.0,1.1,98,0.00,,---,0.00,VWS V14.01,2013-04-06 15:02:00,
2013-04-06 08:08:00,54.3,53.8,30.15,West,270,0.0,0.0,98,0.00,,---,0.00,VWS V14.01,2013-04-06 15:08:00,
2013-04-06 08:13:00,54.5,54.0,30.15,NW,315,0.0,0.0,98,0.00,,---,0.00,VWS V14.01,2013-04-06 15:13:00,
2013-04-06 08:18:00,54.7,54.1,30.15,West,270,1.1,1.1,98,0.00,,---,0.00,VWS V14.01,2013-04-06 15:18:00,
2013-04-06 08:24:00,54.9,54.3,30.15,West,270,0.0,0.0,98,0.00,,---,0.00,VWS V14.01,2013-04-06 15:24:00,
2013-04-06 08:29:00,54.9,54.3,30.15,West,270,1.6,1.6,98,0.00,,---,0.00,VWS V14.01,2013-04-06 15:29:00,
2013-04-06 08:34:00,55.2,54.7,30.15,WNW,292,0.0,0.0,98,0.00,,---,0.00,VWS V14.01,2013-04-06 15:34:00,
2013-04-06 08:39:00,55.6,55.0,30.15,SSW,202,2.2,2.7,98,0.00,,---,0.00,VWS V14.01,2013-04-06 15:39:00,
2013-04-06 08:44:00,55.4,54.8,30.15,South,180,1.1,2.9,98,0.00,,---,0.00,VWS V14.01,2013-04-06 15:44:00,
2013-04-06 08:50:00,55.4,54.8,30.15,West,270,1.3,2.0,98,0.00,,---,0.00,VWS V14.01,2013-04-06 15:50:00,
2013-04-06 08:55:00,55.6,55.0,30.15,SW,225,0.0,1.3,98,0.00,,---,0.00,VWS V14.01,2013-04-06 15:55:00,
2013-04-06 09:00:00,55.9,55.4,30.15,West,270,0.0,2.5,98,0.00,,---,0.00,VWS V14.01,2013-04-06 16:00:00,
2013-04-06 09:05:00,55.9,55.4,30.15,South,180,2.9,2.9,98,0.00,,---,0.00,VWS V14.01,2013-04-06 16:05:00,
2013-04-06 09:10:00,55.9,55.4,30.15,SE,135,1.3,3.1,98,0.00,,---,0.00,VWS V14.01,2013-04-06 16:10:00,
2013-04-06 09:15:00,55.9,55.4,30.15,South,180,2.0,3.4,98,0.00,,---,0.00,VWS V14.01,2013-04-06 16:15:00,
2013-04-06 09:20:00,56.1,55.6,30.15,WNW,292,0.0,2.5,98,0.00,,---,0.00,VWS V14.01,2013-04-06 16:20:00,
2013-04-06 09:25:00,56.3,55.8,30.15,NW,315,0.0,0.0,98,0.00,,---,0.00,VWS V14.01,2013-04-06 16:25:00,
2013-04-06 09:31:00,56.3,55.8,30.15,NW,315,0.0,1.3,98,0.00,,---,0.00,VWS V14.01,2013-04-06 16:31:00,
2013-04-06 09:36:00,56.7,56.1,30.15,NW,315,0.0,2.0,98,0.00,,---,0.00,VWS V14.01,2013-04-06 16:36:00,
2013-04-06 09:41:00,56.7,56.1,30.15,SW,225,0.9,1.6,98,0.00,,---,0.00,VWS V14.01,2013-04-06 16:41:00,
2013-04-06 09:46:00,56.5,55.9,30.15,SSW,202,2.5,2.5,98,0.00,,---,0.00,VWS V14.01,2013-04-06 16:46:00,
2013-04-06 09:51:00,56.7,56.1,30.15,North,0,0.0,2.5,98,0.00,,---,0.00,VWS V14.01,2013-04-06 16:51:00,
2013-04-06 09:56:00,56.8,56.3,30.15,NNW,338,0.9,2.2,98,0.00,,---,0.00,VWS V14.01,2013-04-06 16:56:00,
2013-04-06 10:01:00,56.8,56.3,30.15,NNW,338,1.1,2.2,98,0.00,,---,0.00,VWS V14.01,2013-04-06 17:01:00,
2013-04-06 10:07:00,57.2,56.6,30.15,NW,315,0.9,0.9,98,0.00,,---,0.00,VWS V14.01,2013-04-06 17:07:00,
2013-04-06 10:12:00,57.6,57.0,30.15,NW,315,1.6,2.5,98,0.00,,---,0.00,VWS V14.01,2013-04-06 17:12:00,
2013-04-06 10:17:00,58.1,57.5,30.15,WNW,292,0.0,2.0,98,0.00,,---,0.00,VWS V14.01,2013-04-06 17:17:00,
2013-04-06 10:22:00,58.5,57.9,30.15,NW,315,2.0,2.0,98,0.00,,---,0.00,VWS V14.01,2013-04-06 17:22:00,
2013-04-06 10:27:00,58.3,57.7,30.15,West,270,0.0,2.5,98,0.00,,---,0.00,VWS V14.01,2013-04-06 17:27:00,
2013-04-06 10:32:00,58.1,57.5,30.15,WNW,292,2.0,2.2,98,0.00,,---,0.00,VWS V14.01,2013-04-06 17:32:00,
2013-04-06 10:37:00,59.2,58.6,30.15,ENE,68,1.1,2.0,98,0.00,,---,0.00,VWS V14.01,2013-04-06 17:37:00,
2013-04-06 10:42:00,59.4,58.8,30.15,ESE,112,2.5,2.5,98,0.00,,---,0.00,VWS V14.01,2013-04-06 17:42:00,
2013-04-06 10:47:00,59.5,59.0,30.15,South,180,0.9,1.6,98,0.00,,---,0.00,VWS V14.01,2013-04-06 17:47:00,
2013-04-06 10:52:00,59.4,58.8,30.15,NNW,338,1.1,1.1,98,0.00,,---,0.00,VWS V14.01,2013-04-06 17:52:00,
2013-04-06 10:57:00,59.0,58.4,30.15,West,270,2.5,2.5,98,0.00,,---,0.00,VWS V14.01,2013-04-06 17:57:00,
2013-04-06 11:03:00,59.0,58.4,30.15,NNW,338,2.5,2.5,98,0.00,,---,0.00,VWS V14.01,2013-04-06 18:03:00,
2013-04-06 11:08:00,59.7,59.2,30.15,South,180,2.7,3.8,98,0.00,,---,0.00,VWS V14.01,2013-04-06 18:08:00,
2013-04-06 11:13:00,60.3,59.7,30.15,NW,315,3.1,3.1,98,0.00,,---,0.00,VWS V14.01,2013-04-06 18:13:00,
2013-04-06 11:20:00,61.0,60.4,30.15,West,270,2.5,4.0,98,0.00,,---,0.00,VWS V14.01,2013-04-06 18:20:00,
2013-04-06 11:25:00,61.7,61.1,30.15,NNW,338,4.7,5.4,98,0.00,,---,0.00,VWS V14.01,2013-04-06 18:25:00,
2013-04-06 11:30:00,61.9,61.3,30.15,West,270,3.8,4.3,98,0.00,,---,0.00,VWS V14.01,2013-04-06 18:30:00,
2013-04-06 11:35:00,62.6,62.0,30.15,NE,45,2.0,4.9,98,0.00,,---,0.00,VWS V14.01,2013-04-06 18:35:00,
2013-04-06 11:40:00,62.1,61.5,30.15,WNW,292,4.7,4.7,98,0.00,,---,0.00,VWS V14.01,2013-04-06 18:40:00,
2013-04-06 11:45:00,62.1,61.5,30.15,East,90,2.0,3.1,98,0.00,,---,0.00,VWS V14.01,2013-04-06 18:45:00,
2013-04-06 11:50:00,61.9,61.3,30.15,NW,315,3.8,3.8,98,0.00,,---,0.00,VWS V14.01,2013-04-06 18:50:00,
2013-04-06 11:55:00,62.1,61.5,30.15,SE,135,2.5,2.5,98,0.00,,---,0.00,VWS V14.01,2013-04-06 18:55:00,
2013-04-06 12:01:00,62.2,61.7,30.15,NW,315,0.0,3.6,98,0.00,,---,0.00,VWS V14.01,2013-04-06 19:01:00,
2013-04-06 12:06:00,62.2,61.7,30.15,NNW,338,4.0,4.0,98,0.00,,---,0.00,VWS V14.01,2013-04-06 19:06:00,
2013-04-06 12:12:00,62.6,62.0,30.15,WNW,292,3.8,4.7,98,0.00,,---,0.00,VWS V14.01,2013-04-06 19:12:00,
2013-04-06 12:17:00,62.6,62.0,30.15,West,270,1.3,3.8,98,0.00,,---,0.00,VWS V14.01,2013-04-06 19:17:00,
2013-04-06 12:22:00,62.8,62.2,30.15,SW,225,3.1,3.4,98,0.00,,---,0.00,VWS V14.01,2013-04-06 19:22:00,
2013-04-06 12:28:00,63.3,62.8,30.15,SSW,202,2.0,3.1,98,0.00,,---,0.00,VWS V14.01,2013-04-06 19:28:00,
2013-04-06 12:33:00,64.2,63.7,30.15,NNW,338,2.2,2.2,98,0.00,,---,0.00,VWS V14.01,2013-04-06 19:33:00,
2013-04-06 12:39:00,65.5,64.3,30.15,NNW,338,2.0,4.0,96,0.00,,---,0.00,VWS V14.01,2013-04-06 19:39:00,
2013-04-06 12:45:00,65.7,64.5,30.15,North,0,2.0,4.9,96,0.00,,---,0.00,VWS V14.01,2013-04-06 19:45:00,
2013-04-06 12:50:00,65.3,64.4,30.15,North,0,3.1,3.1,97,0.00,,---,0.00,VWS V14.01,2013-04-06 19:50:00,
2013-04-06 12:55:00,65.7,64.8,30.15,NNW,338,2.9,4.9,97,0.00,,---,0.00,VWS V14.01,2013-04-06 19:55:00,
2013-04-06 13:00:00,65.3,64.4,30.15,NW,315,3.8,3.8,97,0.00,,---,0.00,VWS V14.01,2013-04-06 20:00:00,
2013-04-06 13:06:00,67.8,66.0,30.15,South,180,2.0,3.4,94,0.00,,---,0.00,VWS V14.01,2013-04-06 20:06:00,
2013-04-06 13:11:00,68.9,67.1,30.15,WNW,292,2.7,5.6,94,0.00,,---,0.00,VWS V14.01,2013-04-06 20:11:00,
2013-04-06 13:16:00,71.1,68.3,30.15,NNW,338,3.6,4.9,91,0.00,,---,0.00,VWS V14.01,2013-04-06 20:16:00,
2013-04-06 13:21:00,70.5,68.1,30.15,NW,315,4.3,4.3,92,0.00,,---,0.00,VWS V14.01,2013-04-06 20:21:00,
2013-04-06 13:26:00,69.8,67.7,30.15,South,180,1.3,5.8,93,0.00,,---,0.00,VWS V14.01,2013-04-06 20:26:00,
2013-04-06 13:31:00,70.2,68.1,30.15,SSE,158,3.8,4.0,93,0.00,,---,0.00,VWS V14.01,2013-04-06 20:31:00,
2013-04-06 13:36:00,69.3,67.5,30.15,South,180,3.6,5.6,94,0.00,,---,0.00,VWS V14.01,2013-04-06 20:36:00,
2013-04-06 13:42:00,70.0,68.2,30.15,South,180,4.9,5.8,94,0.00,,---,0.00,VWS V14.01,2013-04-06 20:42:00,
2013-04-06 13:47:00,70.3,68.2,30.15,SW,225,3.1,4.9,93,0.00,,---,0.00,VWS V14.01,2013-04-06 20:47:00,
2013-04-06 13:52:00,71.1,68.9,30.15,WNW,292,4.9,5.8,93,0.00,,---,0.00,VWS V14.01,2013-04-06 20:52:00,
2013-04-06 13:57:00,71.8,69.3,30.12,West,270,0.9,4.9,92,0.00,,---,0.00,VWS V14.01,2013-04-06 20:57:00,
2013-04-06 14:02:00,72.1,69.7,30.12,SW,225,4.0,5.4,92,0.00,,---,0.00,VWS V14.01,2013-04-06 21:02:00,
2013-04-06 14:07:00,72.5,70.1,30.12,SE,135,1.1,4.0,92,0.00,,---,0.00,VWS V14.01,2013-04-06 21:07:00,
2013-04-06 14:12:00,72.7,70.2,30.12,West,270,6.5,6.5,92,0.00,,---,0.00,VWS V14.01,2013-04-06 21:12:00,
2013-04-06 14:17:00,73.0,70.3,30.12,South,180,2.7,2.7,91,0.00,,---,0.00,VWS V14.01,2013-04-06 21:17:00,
2013-04-06 14:22:00,73.2,70.1,30.12,SE,135,5.8,7.4,90,0.00,,---,0.00,VWS V14.01,2013-04-06 21:22:00,
2013-04-06 14:28:00,73.0,70.3,30.12,West,270,4.9,4.9,91,0.00,,---,0.00,VWS V14.01,2013-04-06 21:28:00,
2013-04-06 14:33:00,73.2,70.8,30.12,South,180,2.0,3.8,92,0.00,,---,0.00,VWS V14.01,2013-04-06 21:33:00,
2013-04-06 14:38:00,72.5,69.4,30.12,South,180,4.9,4.9,90,0.00,,---,0.00,VWS V14.01,2013-04-06 21:38:00,
2013-04-06 14:43:00,72.5,70.1,30.12,West,270,6.0,6.0,92,0.00,,---,0.00,VWS V14.01,2013-04-06 21:43:00,
2013-04-06 14:49:00,72.1,69.4,30.12,NW,315,7.6,7.6,91,0.00,,---,0.00,VWS V14.01,2013-04-06 21:49:00,
2013-04-06 14:54:00,70.7,68.6,30.12,SW,225,2.7,4.9,93,0.00,,---,0.00,VWS V14.01,2013-04-06 21:54:00,
2013-04-06 14:59:00,70.5,68.7,30.12,South,180,1.3,3.8,94,0.00,,---,0.00,VWS V14.01,2013-04-06 21:59:00,
2013-04-06 15:04:00,70.7,68.9,30.12,SW,225,3.6,9.6,94,0.00,,---,0.00,VWS V14.01,2013-04-06 22:04:00,
2013-04-06 15:09:00,70.2,68.1,30.12,SW,225,4.3,6.5,93,0.00,,---,0.00,VWS V14.01,2013-04-06 22:09:00,
2013-04-06 15:14:00,69.4,67.9,30.12,ESE,112,1.6,3.6,95,0.00,,---,0.00,VWS V14.01,2013-04-06 22:14:00,
2013-04-06 15:20:00,69.3,67.5,30.12,SW,225,2.5,5.4,94,0.00,,---,0.00,VWS V14.01,2013-04-06 22:20:00,
2013-04-06 15:25:00,69.1,66.7,30.12,SW,225,3.1,7.2,92,0.00,,---,0.00,VWS V14.01,2013-04-06 22:25:00,
2013-04-06 15:30:00,69.8,67.4,30.12,WNW,292,3.8,3.8,92,0.00,,---,0.00,VWS V14.01,2013-04-06 22:30:00,
2013-04-06 15:35:00,70.2,67.4,30.12,South,180,2.9,6.3,91,0.00,,---,0.00,VWS V14.01,2013-04-06 22:35:00,
2013-04-06 15:40:00,69.6,66.6,30.12,South,180,4.9,5.8,90,0.00,,---,0.00,VWS V14.01,2013-04-06 22:40:00,
2013-04-06 15:46:00,70.0,66.6,30.12,South,180,6.0,6.0,89,0.00,,---,0.00,VWS V14.01,2013-04-06 22:46:00,
2013-04-06 15:51:00,70.3,66.6,30.12,WNW,292,2.2,4.0,88,0.00,,---,0.00,VWS V14.01,2013-04-06 22:51:00,
2013-04-06 15:57:00,70.9,67.2,30.12,WNW,292,3.1,6.0,88,0.00,,---,0.00,VWS V14.01,2013-04-06 22:57:00,
2013-04-06 16:02:00,71.1,66.7,30.12,South,180,4.5,5.8,86,0.00,,---,0.00,VWS V14.01,2013-04-06 23:02:00,
2013-04-06 16:07:00,69.3,64.6,30.12,SW,225,2.5,4.0,85,0.00,,---,0.00,VWS V14.01,2013-04-06 23:07:00,
2013-04-06 16:13:00,69.8,65.8,30.12,SE,135,4.0,4.0,87,0.00,,---,0.00,VWS V14.01,2013-04-06 23:13:00,
2013-04-06 16:18:00,69.3,64.6,30.12,South,180,4.0,4.0,85,0.00,,---,0.00,VWS V14.01,2013-04-06 23:18:00,
2013-04-06 16:23:00,69.3,65.2,30.12,SW,225,2.9,5.4,87,0.00,,---,0.00,VWS V14.01,2013-04-06 23:23:00,
2013-04-06 16:28:00,68.7,63.7,30.12,South,180,4.9,4.9,84,0.00,,---,0.00,VWS V14.01,2013-04-06 23:28:00,
2013-04-06 16:33:00,68.7,64.7,30.12,South,180,4.9,4.9,87,0.00,,---,0.00,VWS V14.01,2013-04-06 23:33:00,
2013-04-06 16:39:00,68.4,63.7,30.12,SE,135,5.6,6.0,85,0.00,,---,0.00,VWS V14.01,2013-04-06 23:39:00,
2013-04-06 16:44:00,68.0,64.3,30.12,SE,135,2.5,3.1,88,0.00,,---,0.00,VWS V14.01,2013-04-06 23:44:00,
2013-04-06 16:50:00,67.5,64.1,30.12,SE,135,3.6,5.4,89,0.00,,---,0.00,VWS V14.01,2013-04-06 23:50:00,
2013-04-06 16:55:00,67.1,63.8,30.12,South,180,3.1,3.6,89,0.00,,---,0.00,VWS V14.01,2013-04-06 23:55:00,
2013-04-06 17:00:00,66.6,63.2,30.12,SSW,202,4.0,4.0,89,0.00,,---,0.00,VWS V14.01,2013-04-07 00:00:00,
2013-04-06 17:05:00,66.6,63.2,30.12,South,180,4.0,6.0,89,0.00,,---,0.00,VWS V14.01,2013-04-07 00:05:00,
2013-04-06 17:11:00,65.5,61.8,30.12,SSW,202,4.0,5.8,88,0.00,,---,0.00,VWS V14.01,2013-04-07 00:11:00,
2013-04-06 17:17:00,65.5,62.2,30.12,South,180,2.7,4.3,89,0.00,,---,0.00,VWS V14.01,2013-04-07 00:17:00,
2013-04-06 17:22:00,64.9,61.6,30.12,SSE,158,2.7,4.0,89,0.00,,---,0.00,VWS V14.01,2013-04-07 00:22:00,
2013-04-06 17:27:00,65.1,62.1,30.12,WNW,292,2.5,3.4,90,0.00,,---,0.00,VWS V14.01,2013-04-07 00:27:00,
2013-04-06 17:32:00,64.8,61.8,30.12,WSW,248,5.6,5.6,90,0.00,,---,0.00,VWS V14.01,2013-04-07 00:32:00,
2013-04-06 17:38:00,64.4,61.7,30.12,SE,135,3.6,3.6,91,0.00,,---,0.00,VWS V14.01,2013-04-07 00:38:00,
2013-04-06 17:43:00,64.0,61.0,30.12,South,180,2.9,4.3,90,0.00,,---,0.00,VWS V14.01,2013-04-07 00:43:00,
2013-04-06 17:48:00,63.5,60.5,30.12,West,270,4.0,4.0,90,0.00,,---,0.00,VWS V14.01,2013-04-07 00:48:00,
2013-04-06 17:53:00,63.3,60.7,30.12,South,180,2.5,2.9,91,0.00,,---,0.00,VWS V14.01,2013-04-07 00:53:00,
2013-04-06 17:58:00,63.0,60.3,30.12,South,180,3.8,3.8,91,0.00,,---,0.00,VWS V14.01,2013-04-07 00:58:00,
2013-04-06 18:03:00,62.6,59.6,30.12,SW,225,2.9,2.9,90,0.00,,---,0.00,VWS V14.01,2013-04-07 01:03:00,
2013-04-06 18:08:00,62.4,59.8,30.12,South,180,3.8,3.8,91,0.00,,---,0.00,VWS V14.01,2013-04-07 01:08:00,
2013-04-06 18:15:00,62.1,59.7,30.12,WNW,292,1.3,6.3,92,0.00,,---,0.00,VWS V14.01,2013-04-07 01:15:00,
2013-04-06 18:20:00,61.7,59.0,30.12,South,180,2.9,4.9,91,0.00,,---,0.00,VWS V14.01,2013-04-07 01:20:00,
2013-04-06 18:25:00,61.7,59.4,30.12,SSE,158,2.5,4.0,92,0.00,,---,0.00,VWS V14.01,2013-04-07 01:25:00,
2013-04-06 18:31:00,61.5,59.2,30.12,SE,135,2.7,6.3,92,0.00,,---,0.00,VWS V14.01,2013-04-07 01:31:00,
2013-04-06 18:37:00,60.8,58.8,30.12,South,180,3.8,6.7,93,0.00,,---,0.00,VWS V14.01,2013-04-07 01:37:00,
2013-04-06 18:42:00,60.4,58.4,30.12,East,90,3.1,6.0,93,0.00,,---,0.00,VWS V14.01,2013-04-07 01:42:00,
2013-04-06 18:47:00,60.1,58.0,30.12,South,180,3.4,3.4,93,0.00,,---,0.00,VWS V14.01,2013-04-07 01:47:00,
2013-04-06 18:52:00,59.7,57.7,30.12,South,180,3.4,3.6,93,0.00,,---,0.00,VWS V14.01,2013-04-07 01:52:00,
2013-04-06 18:58:00,59.5,57.5,30.12,South,180,3.6,3.6,93,0.00,,---,0.00,VWS V14.01,2013-04-07 01:58:00,
2013-04-06 19:03:00,59.4,57.6,30.12,SSE,158,3.8,3.8,94,0.00,,---,0.00,VWS V14.01,2013-04-07 02:03:00,
2013-04-06 19:08:00,59.4,57.6,30.12,SE,135,3.6,7.8,94,0.00,,---,0.00,VWS V14.01,2013-04-07 02:08:00,
2013-04-06 19:13:00,59.0,57.3,30.12,South,180,3.1,4.9,94,0.00,,---,0.00,VWS V14.01,2013-04-07 02:13:00,
2013-04-06 19:18:00,58.8,57.1,30.12,SSE,158,5.8,5.8,94,0.00,,---,0.00,VWS V14.01,2013-04-07 02:18:00,
2013-04-06 19:24:00,58.1,56.4,30.12,South,180,4.0,6.3,94,0.00,,---,0.00,VWS V14.01,2013-04-07 02:24:00,
2013-04-06 19:30:00,57.7,56.3,30.12,SSE,158,2.0,3.6,95,0.00,,---,0.00,VWS V14.01,2013-04-07 02:30:00,
2013-04-06 19:35:00,57.2,55.8,30.12,SE,135,3.1,3.1,95,0.00,,---,0.00,VWS V14.01,2013-04-07 02:35:00,
2013-04-06 19:40:00,57.0,55.9,30.12,ESE,112,4.3,4.3,96,0.00,,---,0.00,VWS V14.01,2013-04-07 02:40:00,
2013-04-06 19:46:00,57.0,55.9,30.12,SE,135,2.7,5.8,96,0.00,,---,0.00,VWS V14.01,2013-04-07 02:46:00,
2013-04-06 19:51:00,56.7,55.5,30.12,SSE,158,4.9,4.9,96,0.00,,---,0.00,VWS V14.01,2013-04-07 02:51:00,
2013-04-06 19:57:00,56.3,55.2,30.12,South,180,4.0,6.0,96,0.00,,---,0.00,VWS V14.01,2013-04-07 02:57:00,
2013-04-06 20:02:00,56.1,55.0,30.12,SSE,158,3.1,6.3,96,0.00,,---,0.00,VWS V14.01,2013-04-07 03:02:00,
2013-04-06 20:07:00,55.8,54.9,30.12,SE,135,3.4,4.9,97,0.00,,---,0.00,VWS V14.01,2013-04-07 03:07:00,
2013-04-06 20:12:00,55.6,54.8,30.12,SE,135,3.1,6.0,97,0.00,,---,0.00,VWS V14.01,2013-04-07 03:12:00,
2013-04-06 20:17:00,55.4,54.6,30.12,SE,135,2.2,3.6,97,0.00,,---,0.00,VWS V14.01,2013-04-07 03:17:00,
2013-04-06 20:22:00,55.0,54.5,30.12,NE,45,3.8,3.8,98,0.00,,---,0.00,VWS V14.01,2013-04-07 03:22:00,
2013-04-06 20:27:00,55.0,54.5,30.12,SSW,202,1.3,4.3,98,0.00,,---,0.00,VWS V14.01,2013-04-07 03:27:00,
2013-04-06 20:32:00,54.7,54.1,30.12,SE,135,1.1,4.7,98,0.00,,---,0.00,VWS V14.01,2013-04-07 03:32:00,
2013-04-06 20:37:00,54.5,54.0,30.12,SE,135,2.9,6.3,98,0.00,,---,0.00,VWS V14.01,2013-04-07 03:37:00,
2013-04-06 20:42:00,54.3,53.8,30.12,SSE,158,1.6,3.8,98,0.00,,---,0.00,VWS V14.01,2013-04-07 03:42:00,
2013-04-06 20:47:00,54.1,53.6,30.12,SSE,158,4.3,4.3,98,0.00,,---,0.00,VWS V14.01,2013-04-07 03:47:00,
2013-04-06 20:52:00,53.8,53.2,30.12,SSE,158,5.6,5.6,98,0.00,,---,0.00,VWS V14.01,2013-04-07 03:52:00,
2013-04-06 20:57:00,53.8,53.2,30.12,SE,135,2.5,2.5,98,0.00,,---,0.00,VWS V14.01,2013-04-07 03:57:00,
2013-04-06 21:00:00,53.8,53.2,30.12,SE,135,3.1,5.6,98,0.00,,---,0.00,VWS V14.01,2013-04-07 04:00:00,
2013-04-06 21:01:00,53.8,53.2,30.12,SE,135,2.7,5.6,98,0.00,,---,0.00,VWS V14.01,2013-04-07 04:01:00,
2013-04-06 21:02:00,53.8,53.2,30.12,SE,135,2.7,5.6,98,0.00,,---,0.00,VWS V14.01,2013-04-07 04:02:00,
2013-04-06 21:07:00,53.8,53.2,30.12,ESE,112,5.4,5.4,98,0.00,,---,0.00,VWS V14.01,2013-04-07 04:07:00,
2013-04-06 21:08:00,53.8,53.2,30.12,SE,135,5.4,5.4,98,0.00,,---,0.00,VWS V14.01,2013-04-07 04:08:00,
2013-04-06 21:14:00,53.8,53.2,30.12,SSE,158,2.5,4.9,98,0.00,,---,0.00,VWS V14.01,2013-04-07 04:14:00,
2013-04-06 21:19:00,53.8,53.2,30.12,NE,45,2.5,2.5,98,0.00,,---,0.00,VWS V14.01,2013-04-07 04:19:00,
2013-04-06 21:24:00,53.8,53.2,30.15,South,180,0.9,3.6,98,0.00,,---,0.00,VWS V14.01,2013-04-07 04:24:00,
2013-04-06 21:29:00,53.8,53.2,30.15,SE,135,4.7,4.7,98,0.00,,---,0.00,VWS V14.01,2013-04-07 04:29:00,
2013-04-06 21:34:00,53.8,53.2,30.15,SE,135,2.9,4.9,98,0.00,,---,0.00,VWS V14.01,2013-04-07 04:34:00,
2013-04-06 21:39:00,53.8,53.2,30.15,SW,225,1.3,3.8,98,0.00,,---,0.00,VWS V14.01,2013-04-07 04:39:00,
2013-04-06 21:44:00,53.2,52.7,30.15,SSE,158,3.4,3.4,98,0.00,,---,0.00,VWS V14.01,2013-04-07 04:44:00,
2013-04-06 21:50:00,53.2,52.7,30.15,WSW,248,2.5,3.6,98,0.00,,---,0.00,VWS V14.01,2013-04-07 04:50:00,
2013-04-06 21:55:00,53.2,52.7,30.15,South,180,2.5,2.9,98,0.00,,---,0.00,VWS V14.01,2013-04-07 04:55:00,
2013-04-06 22:00:00,53.2,52.7,30.15,SSE,158,1.6,2.2,98,0.00,,---,0.00,VWS V14.01,2013-04-07 05:00:00,
2013-04-06 22:05:00,53.2,52.7,30.15,East,90,0.0,2.7,98,0.00,,---,0.00,VWS V14.01,2013-04-07 05:05:00,
2013-04-06 22:10:00,53.2,52.7,30.15,SSW,202,1.6,2.0,98,0.00,,---,0.00,VWS V14.01,2013-04-07 05:10:00,
2013-04-06 22:15:00,53.2,52.7,30.15,SSE,158,0.0,2.5,98,0.00,,---,0.00,VWS V14.01,2013-04-07 05:15:00,
2013-04-06 22:20:00,53.2,52.7,30.15,South,180,2.2,2.2,98,0.00,,---,0.00,VWS V14.01,2013-04-07 05:20:00,
2013-04-06 22:26:00,53.2,52.7,30.15,SSE,158,0.0,0.9,98,0.00,,---,0.00,VWS V14.01,2013-04-07 05:26:00,
2013-04-06 22:31:00,53.2,52.7,30.15,SW,225,2.0,2.0,98,0.00,,---,0.00,VWS V14.01,2013-04-07 05:31:00,
2013-04-06 22:37:00,53.2,52.7,30.15,South,180,0.9,2.2,98,0.00,,---,0.00,VWS V14.01,2013-04-07 05:37:00,
2013-04-06 22:42:00,53.2,52.7,30.15,SW,225,1.1,2.0,98,0.00,,---,0.00,VWS V14.01,2013-04-07 05:42:00,
2013-04-06 22:47:00,53.2,52.7,30.15,SSE,158,0.0,1.1,98,0.00,,---,0.00,VWS V14.01,2013-04-07 05:47:00,
2013-04-06 22:52:00,53.2,52.7,30.15,SW,225,1.3,3.4,98,0.00,,---,0.00,VWS V14.01,2013-04-07 05:52:00,
2013-04-06 22:57:00,53.2,52.7,30.15,NE,45,1.6,1.6,98,0.00,,---,0.00,VWS V14.01,2013-04-07 05:57:00,
2013-04-06 23:02:00,53.2,52.7,30.15,NNW,338,0.0,2.2,98,0.00,,---,0.00,VWS V14.01,2013-04-07 06:02:00,
2013-04-06 23:07:00,53.2,52.7,30.15,South,180,0.0,1.3,98,0.00,,---,0.00,VWS V14.01,2013-04-07 06:07:00,
2013-04-06 23:12:00,53.2,52.7,30.15,WNW,292,0.0,0.0,98,0.00,,---,0.00,VWS V14.01,2013-04-07 06:12:00,
2013-04-06 23:17:00,53.2,52.7,30.15,WNW,292,0.0,0.0,98,0.00,,---,0.00,VWS V14.01,2013-04-07 06:17:00,
2013-04-06 23:22:00,53.2,52.7,30.15,South,180,0.0,0.0,98,0.00,,---,0.00,VWS V14.01,2013-04-07 06:22:00,
2013-04-06 23:28:00,53.2,52.7,30.15,South,180,0.0,0.0,98,0.00,,---,0.00,VWS V14.01,2013-04-07 06:28:00,
2013-04-06 23:33:00,53.2,52.7,30.15,South,180,0.0,0.0,98,0.00,,---,0.00,VWS V14.01,2013-04-07 06:33:00,
2013-04-06 23:38:00,53.2,52.7,30.15,SE,135,0.0,0.0,98,0.00,,---,0.00,VWS V14.01,2013-04-07 06:38:00,
2013-04-06 23:43:00,53.2,52.7,30.15,South,180,0.0,1.1,98,0.00,,---,0.00,VWS V14.01,2013-04-07 06:43:00,
2013-04-06 23:48:00,53.2,52.7,30.15,West,270,2.0,2.0,98,0.00,,---,0.00,VWS V14.01,2013-04-07 06:48:00,
2013-04-06 23:53:00,53.2,52.7,30.15,WSW,248,0.0,2.0,98,0.00,,---,0.00,VWS V14.01,2013-04-07 06:53:00,